WORLDVIEW-1 (WV-1)

Last updated on Mon Sep 21 2026 00:02:45 GMT+0000 (Coordinated Universal Time)

1 32060U 07041A 26263.60026823 .00004190 00000+0 17252-3 0 9992 2 32060 97.3870 21.9825 0001904 87.9224 272.2232 15.24658410 57413
UTC large
Height (km)
Speed (km/s)
/
Latitude / Longitude
Inclination (degrees)
Orbital Period (minutes)
Azimuth
Elevation
Range (km)
Doppler Factor

Next 0 passes for location: London (51.5072 / 0.1276)

No passes found over London.